Hourly Data Report for November 30, 2021

MIRAMICHI RCS
NEW BRUNSWICK
Current Station Operator: ECCC - MSC

47°00'34.000" N
65°27'54.000" W
33.00 m
8100989
71744
ACQ

Download Data

Hourly Data (November 2021)
Hourly Data Report for November 30, 2021
TIME
LST
Temp Definition
°C
Dew Point Definition
°C
Rel Hum Definition
%
Precip. Amount Definition
mm

Wind Dir Definition
10's deg

Wind Spd Definition
km/h
Visibility Definition
km
Stn Press Definition
kPa
Hmdx Definition


Wind Chill Definition


Weather Definition


00:00 -2.6 -3.9 91 0.0 31 13   99.89   -7 LegendNANA
01:00 -2.6 -4.0 90 0.2 32 10   99.79   -6 LegendNANA
02:00 -2.8 -4.2 90 0.0 29 13   99.81   -7 LegendNANA
03:00 -2.7 -3.9 91 0.0 30 12   99.73   -7 LegendNANA
04:00 -2.7 -4.1 90 0.0 29 16   99.66   -8 LegendNANA
05:00 -2.6 -3.9 91 0.0 29 17   99.60   -8 LegendNANA
06:00 -2.8 -4.2 90 0.5 29 12   99.61   -7 LegendNANA
07:00 -2.7 -4.0 91 0.0 29 13   99.62   -7 LegendNANA
08:00 -2.6 -4.2 88 0.0 29 18   99.64   -8 LegendNANA
09:00 -2.3 -4.9 82 0.0 29 14   99.68   -7 LegendNANA
10:00 -2.1 -5.0 80 0.0 29 17   99.70   -7 LegendNANA
11:00 -1.6 -5.8 73 0.0 29 22   99.70   -8 LegendNANA
12:00 -1.9 -6.6 70 0.0 29 20   99.71   -8 LegendNANA
13:00 -2.1 -7.3 68 0.0 30 20   99.75   -8 LegendNANA
14:00 -2.9 -8.9 63 0.0 27 25   99.84   -10 LegendNANA
15:00 -3.2 -8.6 66 0.0 28 20   99.94   -9 LegendNANA
16:00 -3.4 -8.9 66 0.0 28 20   100.02   -10 LegendNANA
17:00 -3.4 -8.9 66 0.0 28 17   100.11   -9 LegendNANA
18:00 -4.1 -9.9 64 0.0 27 16   100.23   -10 LegendNANA
19:00 -4.3 -9.7 66 0.0 27 14   100.30   -9 LegendNANA
20:00 -4.3 -9.3 68 0.0 25 13   100.37   -9 LegendNANA
21:00 -4.8 -9.0 73 0.0 24 14   100.42   -10 LegendNANA
22:00 -5.6 -9.1 76 0.0 22 16   100.48   -12 LegendNANA
23:00 -6.1 -9.8 75 0.0 23 13   100.52   -11 LegendNANA

Notes on Data Quality.

Legend

  • E = Estimated
  • M = Missing
  • NA = Not Available*
  • [empty] = Indicates an unobserved value
Date modified: